Flag for U.S.A. Weather past 2 weeks in Grand Rapids, Michigan, U.S.A.

Now
76 °F

Passing clouds.


Feels Like: 78 °F
Forecast: 63 / 78 °F
Wind: 9 mph from Northwest

Location: Kent County International Airport

Current Time: Sep 2, 2014 at 7:55:16 PM

Latest Report: Sep 2, 2014 at 6:53 PM


Visibility: 10 mi

Pressure: 29.89 "Hg

Humidity: 56%

Dew point: 59 °F

Location of Grand RapidsLocation

Historic Weather in Grand Rapids — Graph

°F

Grand Rapids temperature yesterday

Maximum temperature yesterday: 80 °F (at 12:53 PM)
Minimum temperature yesterday: 67 °F (at 2:53 AM)
Average temperature yesterday: 74 °F

Past Weeks' High & Low Weather Summary

 TemperatureHumidityPressure
High85 °F (Aug 25, 12:53 PM)100% (Aug 19, 1:53 AM)30.19 "Hg (Aug 19, 1:53 AM)
Low53 °F (Aug 28, 6:53 AM)48% (Sep 2, 3:53 PM)29.71 "Hg (Aug 19, 7:53 PM)
Average72 °F87%29.96 "Hg
* Reported Aug 18 6:53 PM — Sep 2 6:53 PM, Grand Rapids, Weather by CustomWeather, © 2014

Note: Actual official high and low records may vary slightly from our data, if they occured in-between our weather recording intervals... More about our weather records

Advertising

Grand Rapids weather history for previous 24 hours

 ConditionsComfort  
Time TempWeatherWind HumidityBarometerVisibility
6:53 PM
Sep 2
76 °FPassing clouds.9 mph56%29.89 "Hg10 mi
5:53 PM78 °FPassing clouds.10 mph48%29.90 "Hg10 mi
4:53 PM79 °FScattered clouds.13 mph48%29.89 "Hg10 mi
3:53 PM79 °FScattered clouds.16 mph48%29.88 "Hg10 mi
2:53 PM79 °FBroken clouds.17 mph50%29.88 "Hg10 mi
1:53 PM78 °FBroken clouds.10 mph58%29.87 "Hg10 mi
12:53 PM76 °FBroken clouds.10 mph62%29.88 "Hg10 mi
11:53 AM76 °FPartly sunny.10 mph58%29.88 "Hg10 mi
10:53 AM75 °FScattered clouds.6 mph69%29.88 "Hg10 mi
9:53 AM71 °FPartly sunny.No wind87%29.86 "Hg10 mi
8:53 AM70 °FPartly sunny.5 mph93%29.87 "Hg10 mi
7:53 AM66 °FPassing clouds.5 mph100%29.86 "Hg10 mi
6:53 AM67 °FPassing clouds.7 mph100%29.85 "Hg10 mi
5:53 AM68 °FPartly cloudy.7 mph100%29.85 "Hg10 mi
4:53 AM68 °FPassing clouds.7 mph100%29.83 "Hg10 mi
3:53 AM70 °FClear.6 mph93%29.83 "Hg10 mi
2:53 AM70 °FPassing clouds.7 mph100%29.82 "Hg10 mi
1:53 AM71 °FPartly cloudy.7 mph100%29.82 "Hg10 mi
12:53 AM72 °FOvercast.10 mph93%29.81 "Hg10 mi
11:53 PM
Sep 1
72 °FPassing clouds.8 mph91%29.80 "Hg10 mi
10:53 PM73 °FLight rain. Passing clouds.6 mph88%29.80 "Hg10 mi
9:53 PM73 °FPassing clouds.7 mph90%29.79 "Hg10 mi
8:53 PM75 °FBroken clouds.7 mph82%29.78 "Hg10 mi
7:53 PM78 °FPartly sunny.16 mph74%29.75 "Hg10 mi
Weather by CustomWeather, © 2014

See weather overviewHow to use our weather pages